Location: Go?cza
(50.3372°N, 19.9313°E)
Time: 02:08:13
(UTC+00:00)

CZ-2C R/B - Pass Details

Date: 23 May 2024
Orbit: 703 x 904 km, 98.2° (Epoch: 18 June)

Event Time Altitude Azimuth Distance (km) Brightness Sun altitude
Rises 01:34:20 0° 11° (N) 3,537 7.6 -9.0°
Reaches altitude 10° 01:36:47 10° 8° (N) 2,597 6.7 -8.7°
Maximum altitude 01:42:30 59° 291° (WNW) 1,038 3.6 -8.1°
Drops below altitude 10° 01:48:06 10° 213° (SSW) 2,546 5.0 -7.5°
Enters shadow 01:48:29 - 212° (SSW) 2,691 5.2 -7.4°
